Regional Weather Roundup
Issued by NWS

Home | Current Version | Previous Version | Graphics & Text | Print | Product List | Glossary On
Versions: 1 2 3 4 5 6 7 8 9 10 11 12 13 14 15 16 17 18 19 20 21 22 23 24 25 26 27 28 29 30 31 32 33 34 35 36 37 38 39 40 41 42 43 44 45 46 47 48 49 50
332
ASUS44 KMEG 240910
RWRTN
TENNESSEE HOURLY STATE WEATHER ROUNDUP
NATIONAL WEATHER SERVICE MEMPHIS TN
400 AM CDT MON APR 24 2017

TNZ002-004-019-021-049-052-054-088>092-241000-
WEST TENNESSEE

CITY           SKY/WX    TMP DP  RH WIND       PRES   REMARKS
MEMPHIS INTL   CLEAR     49  46  90 NW3       29.86S
NWS MEMPHIS      N/A     48 N/A N/A MISG        N/A
JACKSON        RAIN      50  48  93 N7        29.85S
DYERSBURG      CLEAR     49  46  90 CALM      29.88R
SOMERVILLE     CLEAR     50  48  93 CALM      29.84S
UNION CITY     CLEAR     48  45  87 N6        29.85F
BOLIVAR        CLEAR     50  48  93 NW5       29.84S
PARIS          CLEAR     45  45 100 N5        29.85S
HUNTINGDON     PTCLDY    50  48  93 N6        29.83F
LEXINGTON      CLOUDY    52  50  93 NE6G13    29.82S
SAVANNAH       CLOUDY    54  52  94 N6        29.81S
$$

TNZ008-025-027-028-033-062-065-066-241000-
NORTH MIDDLE TENNESSEE

CITY           SKY/WX    TMP DP  RH WIND       PRES   REMARKS
NASHVILLE      CLOUDY    54  52  93 NE8       29.81S
PORTLAND       CLOUDY    54  52  94 NE8       29.81S
CLARKSVILLE    CLOUDY    52  48  86 N9        29.84S
SMYRNA         CLOUDY    54  52  93 N3        29.82R
COOKEVILLE     MOCLDY    54  52  94 CALM      29.78F
GALLATIN       CLOUDY    55  52  88 NE5       29.83S
CROSSVILLE     CLOUDY    50  49  96 NE6       29.81S FOG
$$

TNZ061-075-076-078-094-096-097-241000-
SOUTH MIDDLE TENNESSEE

CITY           SKY/WX    TMP DP  RH WIND       PRES   REMARKS
FAYETTEVILLE   CLOUDY    52  52 100 N5        29.78S
TULLAHOMA      CLOUDY    52  52 100 E6        29.79S
WINCHESTER     CLOUDY    52  52 100 CALM      29.79S
MCMINNVILLE    MOCLDY    54  54 100 NE7       29.78F
COLUMBIA       CLOUDY   N/A N/A N/A N5        29.79R
SHELBYVILLE    CLOUDY    54  54 100 NE5       29.79F
$$

TNZ017-018-042-046-047-241000-
NORTHEAST TENNESSEE

CITY           SKY/WX    TMP DP  RH WIND       PRES   REMARKS
TRI CITIES     CLOUDY    49  46  90 N5        29.80F
ELIZABETHTON   DRIZZLE   55  48  76 E13       29.79F
$$

TNZ012-013-036-069-073-074-241000-
CENTRAL EAST TENNESSEE

CITY           SKY/WX    TMP DP  RH WIND       PRES   REMARKS
KNOXVILLE      CLOUDY    53  50  89 NE5       29.79R
OAK RIDGE      CLOUDY    55  49  80 VRB3      29.81S
DOWNTOWN KNOXV CLOUDY    54  52  94 CALM      29.81R
GATLINBURG     CLOUDY    50  50 100 CALM      29.78F
MORRISTOWN     MOCLDY    52  50  93 NE8       29.79R
JACKSBORO      CLOUDY    54  52  94 CALM      29.84S
$$

TNZ083-085-099-241000-
SOUTHEAST TENNESSEE

CITY           SKY/WX    TMP DP  RH WIND       PRES   REMARKS
CHATTANOOGA    CLOUDY    56  55  97 NW3       29.78S FOG
$$

SKY/WX REPORTED AS FAIR MEANS FEW OR NO CLOUDS BELOW
12 THOUSAND FEET.





USA.gov is the U.S. government's official web portal to all federal, state and local government web resources and services.